Other Public Products
Issued by NWS Grand Forks, ND

Home | Current Version | Previous Version | Graphics & Text | Print | Product List | Glossary On
Versions: 1 2 3 4 5 6 7 8 9 10 11 12 13 14 15 16 17 18 19 20 21 22 23 24 25 26 27 28 29 30 31 32 33 34 35 36 37 38 39 40 41 42 43 44 45 46 47 48 49 50
000
FPUS83 KFGF 201510
OPUFGF
PRAIRIE TO PINES WEATHER ROUNDUP
NATIONAL WEATHER SERVICE EASTERN NORTH DAKOTA/GRAND FORKS ND
900 AM CST FRI JAN 20 2017

 **SATELLITE DATA USED TO AUGMENT SKY COVER AT AUTOMATED STATIONS**
 *****  WEATHER ACROSS EASTERN NORTH DAKOTA  *****

CITY           SKY/WX    TMP DP  RH WIND       PRES   REMARKS
GRAND FORKS    FOG       36  34  92 S12       29.50F VSB 3/4
GRAND FORKS AF CLOUDY    34  34 100 SE9       29.50S FOG
GRAND CITY NWS NOT AVBL
BUXTON         NOT AVBL
DEVILS LAKE    CLOUDY    34  34 100 SE7       29.45S FOG
FARGO          CLOUDY    36  36 100 SE10      29.50F FOG
WAHPETON ARPT  CLOUDY    32  32 100 SE8       29.52S WCI  25
$$

 *****  WEATHER ACROSS CENTRAL AND WESTERN NORTH DAKOTA  *****

CITY           SKY/WX    TMP DP  RH WIND       PRES   REMARKS
JAMESTOWN      FOG       33  33 100 SE14      29.43F VSB 1   WCI  23
BISMARCK       FOG       24  22  91 W5        29.41F VSB 1/4 WCI  18
MINOT          FAIR      21  17  84 E5        29.38R WCI  15
MINOT AFB      NOT AVBL
GARRISON         N/A     13  12  96 CALM      29.38S
WILLISTON      FAIR      12  10  92 SW3       29.40S FOG
DICKINSON      FAIR      24  20  84 W10       29.35S WCI  14
HETTINGER      FAIR      26  22  84 NW12      29.37F WCI  16
$$

 *****  OTHER OBSERVATIONS NORTHEAST NORTH DAKOTA  *****

CITY           SKY/WX    TMP DP  RH WIND       PRES   REMARKS
WALHALLA       NOT AVBL
LANGDON        NOT AVBL
CAVALIER       FOG       34  34 100 S10       29.50S VSB 3/4
GRAFTON        FOG       34  34 100 SE10      29.53S VSB 1/4
CANDO          NOT AVBL
FORT TOTTEN      N/A     33  33 100 S7        29.95S
ROLLA            N/A    N/A N/A N/A MISG        N/A
RUGBY            N/A     27  27 100 S9        29.42S FOG     WCI  17
 ***** THE ABOVE OBSERVATIONS ARE NON NWS ARE NOT QUALITY
        CONTROLLED AND MAY MIS-REPORT RAIN FOR SNOW...
$$

 *****  OTHER OBSERVATIONS SOUTHEAST NORTH DAKOTA *****

CITY           SKY/WX    TMP DP  RH WIND       PRES   REMARKS
COOPERSTOWN    FOG       34  34 100 S12       29.47S VSB 1/2
VALLEY CITY    FOG       32  32 100 S12       29.48F VSB 1/2 WCI  23
OAKES          NOT AVBL
GWINNER        CLOUDY    34  34 100 SE14      29.47F VSB 3/4 WCI  24
BUFFALO        NOT AVBL
WYNDMERE       NOT AVBL
 ***** THE ABOVE OBSERVATIONS ARE NON NWS ARE NOT QUALITY
       CONTROLLED AND MAY MIS-REPORT RAIN FOR SNOW...
$$

  *****  WEATHER ACROSS NORTHERN MINNESOTA  *****

CITY           SKY/WX    TMP DP  RH WIND       PRES   REMARKS
FLAG ISLAND    FOG       34  34 100 SE6       29.57S VSB 3/4
WARROAD        CLOUDY    36  30  80 SE8       29.57S FOG
ROSEAU         HAZE      36  30  80 SE9       29.56S VSB 1
HALLOCK        CLOUDY    36  34  93 SE10      29.52R FOG
THF RVR FALLS  CLOUDY    34  34 100 SE14      29.54F FOG     WCI  25
HALSTAD        NOT AVBL
FOSSTON        CLOUDY    34  34 100 SE3       29.54F FOG
BAUDETTE       CLOUDY    34  34 100 SE7       29.58S FOG
WASKISH        CLOUDY    36  34  93 SE7       29.59S FOG
CROOKSTON      CLOUDY    36  34  93 SE12      29.53F FOG
$$
  *****  WEATHER ACROSS CENTRAL AND WEST MINNESOTA  *****

CITY           SKY/WX    TMP DP  RH WIND       PRES   REMARKS
BEMIDJI        FOG       33  33 100 E9        29.57S VSB 1
PARK RAPIDS    MIX PCPN  34  32  92 SE8       29.55S FOG
WADENA         FOG       32  32 100 E7        29.55F VSB 1
DETROIT LAKES  CLOUDY    34  34 100 SE10G16   29.54S FOG
MOORHEAD       CLOUDY    34  34 100 SE7       29.52S FOG
FERGUS FALLS   CLOUDY    34  34 100 SE8       29.57S FOG
ELBOW LAKE     CLOUDY    33  33 100 SE7       29.53S FOG
MORRIS MN      FOG       34  34 100 SE9       29.52S VSB 1/2
STAPLES        CLOUDY    34  34 100 E3        29.57S FOG
WHEATON        FOG       41  41 100 SE9       29.54S VSB 3/4
$$
  *****  WEATHER ELSEWHERE ACROSS MINNESOTA  *****

CITY           SKY/WX    TMP DP  RH WIND       PRES   REMARKS
DULUTH         DRIZZLE   35  34  96 E9        29.65S FOG
INTRNTL FALLS  CLOUDY    34  33  96 SE6       29.61S FOG
ELY            MOCLDY    21  21 100 CALM      29.66S FOG
CLOQUET        MIX PCPN  34  34 100 E6        29.64S VSB 3/4
BRAINERD       CLOUDY    34  34 100 E5        29.59S FOG
HIBBING        CLOUDY    31  31 100 E5        29.64R FOG
ALEXANDRIA     CLOUDY    33  33 100 E9        29.54F FOG
SAINT CLOUD    CLOUDY    34  34 100 SE6       29.58F FOG
MINNEAPOLIS    DRIZZLE   35  33  92 SE8       29.62S FOG
$$

  *****  WEATHER ACROSS SOUTH DAKOTA  *****

CITY           SKY/WX    TMP DP  RH WIND       PRES   REMARKS
SIOUX FALLS    CLOUDY    37  37 100 S10       29.51S FOG
BROOKINGS      CLOUDY    35  35 100 SE12      29.48R FOG
WATERTOWN      CLOUDY    35  35 100 SE13      29.45F
HURON          CLOUDY    36  36 100 SE12      29.43F
SISSETON         N/A     34  34 100 S8        29.49F
ABERDEEN       CLOUDY    34  31  88 E10       29.44F FOG
MITCHELL       CLOUDY    38  37  97 SE15      29.45S
PIERRE         FOG       13  10  88 CALM      29.40R VSB 1/4
MOBRIDGE       HAZE      24  19  81 NW7       29.36R VSB 1/4 WCI  16
RAPID CITY     FAIR      34  26  72 NW9       29.38S
$$

  *****  SOME WEATHER IN NEARBY STATES *****

CITY           SKY/WX    TMP DP  RH WIND       PRES   REMARKS
GLASGOW MT     MOCLDY    29  25  85 NW7       29.41S WCI  22
GREAT FALLS MT FAIR      32  22  66 SW10      29.43S WCI  24
CHEYENNE WY    CLOUDY    32  27  81 N6        29.46S
SCOTTSBLUFF NE FAIR      28  23  81 NW9       29.44R WCI  19
OMAHA NE       DRIZZLE   40  36  86 S5        29.58S FOG
DES MOINES IA  FOG       37  37 100 S8        29.63R VSB 1/4
DAVENPORT IA   FOG       37  37 100 SE5       29.65R VSB 1/2
CHICAGO IL     CLOUDY    39  38  96 NE5       29.64R FOG
EAU CLAIRE WI  FOG       35  35 100 E5        29.65S VSB 1
LA CROSSE WI   FOG       36  34  92 CALM      29.65S VSB 1/4
$$

  *****  SOME NATIONAL WEATHER *****

CITY           SKY/WX    TMP DP  RH WIND       PRES   REMARKS
LA GUARDIA NY  CLOUDY    42  32  67 NE8       30.02R
RALEIGH NC     LGT RAIN  50  47  89 VRB3      29.92S FOG
ATLANTA GA     FAIR      66  60  81 SW13      29.88R
NEW ORLEANS LA PTSUNNY   69  68  96 S8        29.85R
OKLAHOMA CITY  FAIR      42  40  92 S10       29.50S
ALBUQUERQUE NM MOCLDY    33  31  92 VRB3      29.74R
SALT LAKE CITY MOCLDY    31  30  96 S3        29.61S FOG
LOS ANGELES CA LGT RAIN  52  51  97 SE8       29.76F FOG
BOISE ID       MOCLDY    36  27  69 SE15      29.42F
SEATTLE WA     MOCLDY    45  32  60 E10       29.17F
$$

*** WEATHER ACROSS MANITOBA...SASKATCHEWAN AND ONTARIO ***
                ***ONTARIO***

CITY           SKY/WX    TMP DP  RH WIND       PRES   REMARKS
GERALDTON      FOG       34  34 100 SW8       29.69R VSB 1/8
THUNDER BAY    FOG       30  30 100 VRB2      29.72S VSB 1/8
SIOUX LOOKOUT  FOG       34  34 100 S8        29.62S VSB 1/8
TORONTO        CLOUDY    37  34  87 E7        29.80S
BIG TROUT LK   FOG       21  19  93 E3        29.60  VSB 1/2
PICKLE LAKE    FOG       34  34 100 SW8       29.60R VSB 3/8
DRYDEN         LGT RAIN  34  34 100 S7        29.61S VSB 1/8
KENORA         FOG       34  34 100 S7        29.58S VSB 1/8
$$
                *** MANITOBA***

CITY           SKY/WX    TMP DP  RH WIND       PRES   REMARKS
BRANDON        MOCLDY    14  12  92 E3        29.42S FOG
DAUPHIN        FOG       21  19  93 SW3       29.38F VSB 1/8
ISLAND LAKE    FOG       21  19  93 SE3       29.54  VSB 1/2
PILOT MOUND      N/A     27  25  93 S7          N/A  WCI  19
THE PAS        PTCLDY    23  21  93 E3        29.40R
THOMPSON       LGT SNOW  28  27  93 E5        29.52S FOG     WCI  23
WINNIPEG       DRIZZLE   34  34 100 S12       29.50S FOG
LYNN LAKE      FOG       28  28 100 E10       29.45S VSB 1/2 WCI  19
CHURCHILL      FLURRIES  16  14  93 E17G24    29.73R WCI   0
GILLAM         LGT SNOW  25  23  93 E5        29.61R WCI  19
$$
                ***SASKATCHEWAN***

CITY           SKY/WX    TMP DP  RH WIND       PRES   REMARKS
ESTEVAN        MOCLDY    10   9  92 CALM      29.37S
KINDERSLEY     MOCLDY    25  21  86 W5        29.33S WCI  19
LLOYDMINSTER   MOCLDY    23  21  93 W9        29.33R WCI  13
PRINCE ALBERT  MOCLDY    23  23 100 NE3       29.31R
REGINA         PTCLDY    14  14 100 E9        29.37R WCI   2
YORKTON        CLEAR     21  19  93 CALM      29.35F
N. BATTLEFORD  CLEAR     27  27 100 NW5       29.35R WCC1F1C2F2C3F3C4F4C5F5C6F6C7F7C8F8C9F9CaFaCbFbCcFcCdFdCe!



USA.gov is the U.S. government's official web portal to all federal, state and local government web resources and services.